STARLINK-1409 (45704 NORAD) Tracking and Keplerian Element Data

This shows tracking and keplerian element data for the satellite.

Feedback or suggestion? Click here.




ElementValue
Catalog45704
NameSTARLINK-1409
Epoch Orbit1060
Epoch Day218.91667824
Epoch Year2020
RAAN232.4836
Inclination52.9985
Eccentricity0.0001355
Argument of Perigee69.4427
Mean Anonmoly31.0526
Mean Motion15.05549305
Decay Rate0.00075418
L11 45704U 20035AZ 20218.91667824 .00075418 00000-0 51444-2 0 9991
L22 45704 52.9985 232.4836 0001355 69.4427 31.0526 15.05549305 10605

Live tracking and technical data element details for STARLINK-1409 (NORAD 45704). STARLINK-1409 can be tracked NOW for your location showing map with azimuth and elevation plus other details from your city location.

Track the satellite on the map from your city or location and see movement details for azimuth, elevation, latitude, longitude, range, height, and movement on the map or in text.







IsCatalogInMostPopularTable: catalog: 45704, numindb: 13
Update: records affected: 1



GetName: 45704 STARLINK-1409

Hit Count: updated at: Sat, 08 Aug 2020 00:44:20 GMT